Location: Newark
(58.8333°N, 23.5833°E)
Time: 09:14:30
(UTC+00:00)

Tiros 1 despin weight - Pass Details

Date: 25 November 2019
Orbit: 594 x 642 km, 48.2° (Epoch: 10 December)

Event Time Altitude Azimuth Distance (km) Brightness Sun altitude
Rises 10:53:47 0° 228° (SW) 2,825 ? 10.0°
Reaches altitude 10° 10:56:38 10° 210° (SSW) 1,925 ? 9.9°
Maximum altitude 10:59:38 18° 166° (SSE) 1,469 ? 9.8°
Drops below altitude 10° 11:02:39 10° 123° (ESE) 1,933 ? 9.8°
Sets 11:05:31 0° 105° (ESE) 2,842 ? 9.7°
